Regional Weather Roundup
Issued by NWS State College, PA

Home | Current Version | Previous Version | Graphics & Text | Print | Product List | Glossary Off
Versions: 1 2 3 4 5 6 7 8 9 10 11 12 13 14 15 16 17 18 19 20 21 22 23 24 25 26 27 28 29 30 31 32 33 34 35 36 37 38 39 40 41 42 43 44 45 46 47 48 49 50

000
ASUS41 KCTP 242303
RWRCTP
NATIONAL WEATHER SERVICE STATE COLLEGE PA
700 PM EDT SUN SEP 24 2017

Note: "fair" indicates few or no clouds below 12,000 feet with no
significant weather and/or obstructions to visibility.

* = STATION THAT DOES NOT REPORT PRECIPITATION /E.G. RAIN...SNOW...ETC/
    THUNDER OR FOG.

PAZ002>004-007>009-013>016-020>023-029>032-250000-
WESTERN PENNSYLVANIA

CITY           SKY/WX    TMP DP  RH WIND       PRES   REMARKS
ERIE           CLEAR     79  66  64 NE7       30.10S
MEADVILLE      CLEAR     83  62  49 CALM      30.12S
FRANKLIN*      CLEAR     80  66  62 CALM      30.13S
NEW CASTLE     FAIR      83  66  56 CALM      30.10S
BEAVER COUNTY  NOT AVBL
BUTLER*        CLEAR     78  65  63 N3        30.11S
PITTSBURGH INT MOCLDY    85  61  44 SE5       30.09S
PITTSBURGH     CLEAR     83  59  44 E5        30.09S
INDIANA*       CLEAR     79  68  69 CALM      30.13S
LATROBE        PTCLDY    82  64  54 N6        30.10
WASHINGTON CO* CLEAR     75  64  69 CALM      30.10S
$$

PAZ004>006-010>012-017>019-024>028-033>037-041-042-045-046-049>053-250000-
CENTRAL PENNSYLVANIA

CITY           SKY/WX    TMP DP  RH WIND       PRES   REMARKS
BRADFORD       CLEAR     79  64  60 N3        30.17S
DUBOIS         CLEAR     80  62  54 CALM      30.13S
CLEARFIELD     CLEAR     83  61  47 NE3       30.12S
JOHNSTOWN      CLEAR     78  59  51 E3        30.16R
ALTOONA        CLEAR     80  66  62 CALM      30.12S
STATE COLLEGE  CLEAR     82  66  57 CALM      30.10R
WILLIAMSPORT   CLEAR     81  70  69 CALM      30.04S
SELINSGROVE    CLEAR     75  74  96 CALM      30.05S
FT INDIANTOWN  LGT RAIN  80  71  74 CALM      30.05R
CAPITAL CITY   CLEAR     80  69  69 S3        30.04S
HARRISBURG     PTCLDY    81  74  79 CALM      30.03S
YORK           CLEAR     77  71  82 CALM      30.05S
$$

PAZ038>040-043-044-047-048-054-055-060>062-067>071-250000-
EASTERN PENNSYLVANIA

CITY           SKY/WX    TMP DP  RH WIND       PRES   REMARKS
SCRANTON       CLEAR     82  66  58 CALM      30.07S
MOUNT POCONO   CLEAR     74  66  76 CALM      30.13R
ALLENTOWN      CLEAR     86  63  45 CALM      30.04R
QUAKERTOWN*    CLEAR     81  68  65 CALM      30.06R
READING        CLEAR     83  68  60 CALM      30.03S
LANCASTER      CLEAR     83  67  58 SE3       30.04S
COATESVILLE    CLEAR     82  66  57 CALM      30.07S
POTTSTOWN      CLEAR     80  68  66 CALM      30.06R
BLUE BELL      CLEAR     73  68  83 CALM      30.05R
DOYLESTOWN     CLEAR     79  68  69 CALM      30.04R
WILLOW GROVE   NOT AVBL
NORTH PHILA    CLEAR     85  65  51 SE5       30.04R
PHILADELPHIA   PTCLDY    84  65  52 SE3       30.02R
$$




USA.gov is the U.S. government's official web portal to all federal, state and local government web resources and services.